Location: Allonne
(49.4086°N, 2.1143°E)
Time: 07:03:14
(UTC+00:00)

IRIDIUM 114 - Pass Details

Date: 03 February 2023
Orbit: 776 x 779 km, 86.4° (Epoch: 30 March)

Event Time Altitude Azimuth Distance (km) Brightness Sun altitude
Rises 18:36:02 0° 356° (N) 3,277 7.6 -17.3°
Reaches altitude 10° 18:38:24 10° 357° (N) 2,345 6.8 -17.7°
Maximum altitude 18:43:40 83° 86° (E) 792 4.2 -18.6°
Drops below altitude 10° 18:48:53 10° 175° (S) 2,326 6.8 -19.4°
Sets 18:51:14 0° 176° (S) 3,249 7.5 -19.8°
